Location: Unspecified
(47.5840°N, 122.3000°W)
Time: 15:23:18
(UTC+00:00)

Cosmos 1937 Rocket - Pass Details

Date: 09 December 2025
Orbit: 743 x 775 km, 74.0° (Epoch: 16 January)

Event Time Altitude Azimuth Distance (km) Brightness Sun altitude
Exits shadow 13:48:31 36° 290° (WNW) 1,165 3.9 -18.8°
Maximum altitude 13:49:42 42° 256° (WSW) 1,054 3.8 -18.6°
Drops below altitude 10° 13:54:29 10° 186° (S) 2,255 6.0 -17.8°
Sets 13:56:56 0° 180° (S) 3,177 6.9 -17.5°
